Regional Weather Roundup
Issued by NWS

Home | Current Version | Previous Version | Text Only | Print | Product List | Glossary On
Versions: 1 2 3 4 5 6 7 8 9 10 11 12 13 14 15 16 17 18 19 20 21 22 23 24 25 26 27 28 29 30 31 32 33 34 35 36 37 38 39 40 41 42 43 44 45 46 47 48 49 50
000
ASUS43 KOAX 040502
RWRNE

WEATHER ROUNDUP FOR NEBRASKA
NATIONAL WEATHER SERVICE OMAHA NE
1200 AM CDT MON MAY 04 2015

NOTES: SATELLITE DATA IS BEING USED TO AUGMENT CLOUD COVER ABOVE
       12000 FEET.
       "FAIR" INDICATES FEW OR NO CLOUDS BELOW 12,000 FEET WITH NO
       SIGNIFICANT WEATHER AND/OR OBSTRUCTIONS TO VISIBILITY.

  * THESE STATIONS DO NOT REPORT WEATHER SUCH AS RAIN...SNOW OR FOG.

NEZ001>004-019>022-054>056-040600-
NEBRASKA PANHANDLE

CITY           SKY/WX    TMP DP  RH WIND       PRES   REMARKS
SCOTTSBLUFF    MOCLDY    53  40  61 E8        30.06R
ALLIANCE       CLOUDY    54  38  54 E9        30.06R
CHADRON        MOCLDY    50  39  66 E3        30.05R
KIMBALL        CLOUDY    51  41  69 E3        30.06R
SIDNEY         MOCLDY    55  40  56 NE12      30.05S
$$

NEZ057>060-069>072-079>082-040600-
SOUTHWEST NEBRASKA

CITY           SKY/WX    TMP DP  RH WIND       PRES   REMARKS
NORTH PLATTE   CLOUDY    58  40  51 NE12      29.99R
IMPERIAL       CLOUDY    59  39  47 NE15      30.00R
MCCOOK         CLOUDY    63  42  46 NE16      29.95R
$$

NEZ005>010-023>029-035>040-094-040600-
NORTH CENTRAL NEBRASKA

CITY           SKY/WX    TMP DP  RH WIND       PRES   REMARKS
VALENTINE      MOCLDY    56  30  37 NE10      30.06R
AINSWORTH      CLOUDY    58  34  40 NE10      30.06R
BROKEN BOW     CLOUDY    62  38  40 NE17      29.96R
ORD            PTCLDY    62  37  39 N16G24    29.94R
$$

NEZ041-046>049-061>064-073>077-083>087-040600-
SOUTH CENTRAL NEBRASKA

CITY           SKY/WX    TMP DP  RH WIND       PRES   REMARKS
GRAND ISLAND   PTCLDY    64  42  44 NE21G28   29.89R
AURORA         PTCLDY    66  51  59 NE21G26   29.88R
HASTINGS       PTCLDY    66  45  46 N18G28    29.86S
KEARNEY *      MOCLDY    63  41  45 N17G23    29.91R
$$

NEZ011>018-030>034-042>045-040600-
NORTHEAST NEBRASKA

CITY           SKY/WX    TMP DP  RH WIND       PRES   REMARKS
NORFOLK        PTCLDY    64  39  39 NE17G26   29.94R
BLAIR          CLOUDY    66  50  56 N15G25    29.88R
COLUMBUS *     PTCLDY    63  46  55 NE18      29.92R
FREMONT        CLOUDY    65  51  59 N9        29.90S
TEKAMAH        MOCLDY    67  49  52 N18       29.89R
$$

NEZ050>053-065>068-078-088>093-040600-
SOUTHEAST NEBRASKA

CITY           SKY/WX    TMP DP  RH WIND       PRES   REMARKS
LINCOLN        CLOUDY    66  59  78 N9        29.87R
OMAHA EPPLEY   CLOUDY    67  56  67 N14       29.86R
FALLS CITY     CLOUDY    71  58  63 SE8       29.87F
PLATTSMOUTH    TSTM      66  58  75 CALM      29.86F
$$

NEZ044-045-051>053-067-040600-
OMAHA AREA

CITY           SKY/WX    TMP DP  RH WIND       PRES   REMARKS
OMAHA EPPLEY   CLOUDY    67  56  67 N14       29.86R
BLAIR          CLOUDY    66  50  56 N15G25    29.88R
FREMONT        CLOUDY    65  51  59 N9        29.90S
OFFUTT AFB     PTCLDY    70  56  61 NW12      29.85R
PLATTSMOUTH    TSTM      66  58  75 CALM      29.86F
$$


USA.gov is the U.S. government's official web portal to all federal, state and local government web resources and services.